User: anonymous   Login
Location: Deep South Regional Star Gaze
(30.9929°N, 90.9586°W)
Time: 07:14:19
(UTC-05:00)
Language:

H-2A R/B - Orbit

View from above orbital plane
View from above orbital plane
View from above satellite
View from above satellite

Ground track
Ground track

The orbit data is extracted from the following two-line orbital elements,

1 26899U 01038B   17232.54659258  .00000865  00000-0  29307-3 0  9998
2 26899  28.4536  38.7915 7115544 231.2428  41.0571  2.48123991138117
Epoch (UTC): 20 August 2017 13:07:05
Eccentricity: 0.7115544
inclination: 28.4536°
perigee height: 270 km
apogee height: 33068 km
right ascension of ascending node: 38.7915°
argument of perigee: 231.2428°
revolutions per day: 2.48123991
mean anomaly at epoch: 41.0571°
orbit number at epoch: 13811

The dashed part of the orbit path shows where the satellite is in the earth's shadow,  

DLR